Regional Weather Roundup
Issued by NWS Kansas City/Pleasant Hill, MO

Home | Current Version | Previous Version | Graphics & Text | Print | Product List | Glossary Off
Versions: 1 2 3 4 5 6 7 8 9 10 11 12 13 14 15 16 17 18 19 20 21 22 23 24 25 26 27 28 29 30 31 32 33 34 35 36 37 38 39 40 41 42 43 44 45 46 47 48 49 50

000
ASUS43 KEAX 120910
RWREAX

WEATHER ROUNDUP FOR EASTERN KANSAS AND NORTHWEST MISSOURI
NATIONAL WEATHER SERVICE KANSAS CITY/PLEASANT HILL MO
400 AM CDT SAT JUL 12 2014

KSZ040-057-103>105-MOZ028-029-037-043-121000-
...KANSAS CITY METROPOLITAN AREA...

CITY           SKY/WX    TMP DP  RH WIND       PRES   REMARKS
K.C. INTL      PTCLDY    77  69  76 SW13      30.04S
K.C. DOWNTOWN  CLEAR     81  68  64 SW8       30.03S
LEES SUMMIT    CLEAR     78  68  71 SW12      30.05S
OLATHE - IXD   CLEAR     75  69  81 S9        30.06S
OLATHE - OJC   CLEAR     74  69  85 S7        30.05S
LAWRENCE       CLEAR     73  68  84 E3        30.04S

$$

MOZ001>008-011>017-020>025-030>033-038>040-044>046-053-054-121000-
...NORTHERN AND CENTRAL MISSOURI...

CITY           SKY/WX    TMP DP  RH WIND       PRES   REMARKS
ST. JOSEPH     PTCLDY    78  70  76 SW7       30.03R
MOSBY          MOSUNNY   77  70  78 CALM      30.04R
WHITEMAN AFB   MOCLDY    76  65  69 SW12      30.05F
CLINTON        PTCLDY    77  72  83 S3        30.07S
SEDALIA        CLOUDY    79  71  76 SW12      30.07F
WARSAW         NOT AVBL
MARSHALL         N/A     79  73  83 SW6       30.06R HAZE
CHILLICOTHE      N/A     79  71  76 VRB3      30.04R
MOBERLY        PTCLDY    77  70  78 SW7       30.06R
KIRKSVILLE     MOCLDY    78  72  81 SW8       30.04S

$$

MOZ041-047>049-056>058-063>065-088>090-097-121000-
...EASTERN AND SOUTHERN MISSOURI...

CITY           SKY/WX    TMP DP  RH WIND       PRES   REMARKS
ST. LOUIS INTL CLOUDY    82  71  69 S10       30.09
SPIRIT OF STL  CLOUDY    77  71  82 CALM      30.07F
COLUMBIA       CLOUDY    77  74  90 S7        30.07F
MEXICO         MOCLDY   N/A N/A N/A S8        30.06F
HANNIBAL       MOCLDY    77  73  88 S8        30.05S
ROLLA          CLOUDY    75  72  90 S8        30.10S
LEBANON        MOCLDY    75  70  83 SW7       30.12F
OSAGE BEACH    CLOUDY    79  70  73 SW5       30.09S
SPRINGFIELD    PTCLDY    73  69  87 S7        30.12F
BRANSON        PTCLDY    73  72  94 S3        30.16S
NEVADA         PTCLDY    73  70  88 S7        30.09F
JOPLIN         CLEAR     77  68  73 S10       30.11S
WEST PLAINS    CLOUDY    75  73  93 SW6       30.15F FOG
PIEDMONT       CLEAR     68  68 100 CALM      30.14S

$$

IAZ060-094-KSZ022-034>040-054-083-096-NEZ052-066-093-121000-
...KANSAS...SOUTHEAST NEBRASKA AND IOWA...

CITY           SKY/WX    TMP DP  RH WIND       PRES   REMARKS
TOPEKA         CLEAR     80  68  66 SW5       30.04R
MANHATTAN      PTCLDY    78  64  61 SW12      30.01R
EMPORIA        CLEAR     71  67  87 S9        30.05F
CHANUTE        CLEAR     74  69  85 S12       30.07F
WICHITA        CLEAR     74  63  68 S13       30.05F
OMAHA          CLOUDY    75  71  87 N3        30.02R
LINCOLN        CLOUDY    75  67  76 N9        30.01R
FALLS CITY     MOCLDY    78  69  73 S8        30.00R
LAMONI         CLOUDY    76  71  85 SW9       30.02R
DES MOINES     CLOUDY    74  71  91 W6        30.02R THUNDER FOG

$$



USA.gov is the U.S. government's official web portal to all federal, state and local government web resources and services.